Theta_e
292 295 293 292 292 292 292 293 294 295 294 293 294 294 294 292 291 292 291 290 290 289 289 288 288 288 288 288 288 288 288 290 290 292 293 294 297 306 322 323 321 326 331 331
294 293 292 292 292 291 292 293 295 294 294 292 293 293 293 292 292 292 291 290 289 289 289 288 288 288 287 287 287 287 288 289 290 290 291 294 294 303 315 321 321 316 330 330
293 291 291 292 292 291 293 293 293 293 292 291 291 295 293 293 292 290 290 289 289 289 289 288 287 287 287 287 287 287 287 288 289 290 290 292 293 300 311 314 321 318 321 331
291 290 291 292 291 291 292 292 292 292 292 296 290 295 293 293 292 291 290 290 289 289 288 287 287 287 287 286 286 286 287 287 288 290 290 292 293 296 310 316 320 319 322 328
291 290 290 292 290 290 292 291 291 289 291 290 292 293 295 291 291 292 290 289 289 289 287 286 286 286 286 286 286 286 286 287 287 289 289 291 293 294 302 314 318 318 319 324
290 289 290 290 290 290 291 291 289 288 290 294 289 291 295 293 291 291 290 289 290 288 287 286 286 286 286 286 285 286 286 287 287 288 289 291 291 294 302 314 314 316 321 323
290 290 290 289 291 291 291 292 296 297 297 296 289 291 295 292 291 290 289 290 289 287 287 286 286 285 285 285 285 285 286 287 287 288 289 290 292 294 300 310 313 316 320 322
290 294 289 289 289 290 290 290 292 292 294 293 290 291 295 290 289 289 289 289 287 287 286 285 285 285 285 284 285 285 286 286 287 288 289 289 291 293 296 313 312 316 316 320
291 291 289 290 289 289 289 290 288 288 289 288 291 291 291 290 290 290 289 287 286 286 285 285 284 284 284 284 284 285 285 286 286 287 289 290 291 293 294 308 313 315 315 317
288 290 289 288 289 288 290 288 289 289 290 291 291 291 292 291 290 288 288 286 285 284 284 284 283 283 284 284 284 285 285 286 286 287 289 290 291 292 295 305 313 315 316 318
287 287 290 289 289 287 289 289 288 288 288 290 290 292 291 290 290 288 286 285 284 284 283 283 283 283 283 284 284 284 285 286 287 288 289 290 291 292 297 300 313 315 317 318
287 288 289 289 285 284 287 288 287 288 288 288 288 288 290 290 288 286 285 284 283 283 283 282 282 283 283 283 284 284 285 286 288 289 290 291 291 293 298 299 313 314 317 317
288 289 292 292 289 287 288 286 286 287 287 286 287 289 292 288 286 285 284 283 283 282 282 282 283 282 282 283 284 284 285 287 288 290 291 292 292 294 299 302 316 315 315 317
289 289 290 291 291 291 289 288 286 285 287 287 288 288 287 286 285 284 282 282 282 282 282 282 282 282 282 282 283 284 285 287 289 291 293 293 293 296 299 306 312 315 314 316
288 289 289 289 289 288 288 286 283 284 285 285 286 285 284 284 284 282 282 282 281 281 282 282 282 282 282 282 283 284 286 287 291 292 293 294 294 297 300 305 314 315 315 316
286 289 287 286 285 285 285 284 282 284 284 284 283 283 285 282 281 282 281 281 281 282 281 281 281 281 282 282 284 285 286 288 292 293 294 295 294 297 301 306 317 316 316 317
287 288 287 289 287 285 287 285 283 285 284 284 282 285 282 282 281 281 280 280 282 281 281 281 281 281 282 283 284 285 289 290 293 294 295 296 295 298 302 308 317 314 315 316
287 287 287 288 288 291 286 282 283 283 283 282 281 282 281 281 280 280 280 283 281 280 281 280 281 282 282 285 288 291 292 293 295 297 296 297 297 302 305 313 316 318 316 317
286 286 287 288 288 288 286 285 284 282 283 280 280 281 281 280 279 283 283 280 280 280 280 280 281 281 284 288 294 293 294 295 298 297 296 297 302 307 312 317 318 317 316 316
285 285 286 287 287 290 287 285 284 280 285 283 281 280 280 280 282 283 280 279 280 280 280 281 281 283 286 293 296 295 298 299 297 296 297 302 306 310 317 318 319 321 319 318
286 284 286 287 288 288 285 283 284 287 287 282 280 279 280 280 279 279 279 279 280 280 280 281 281 283 287 295 300 299 300 299 295 298 304 307 313 318 319 320 321 322 320 321
287 288 288 285 286 289 282 286 285 285 281 280 280 280 279 279 279 279 279 279 279 280 282 284 282 283 288 296 300 301 298 298 301 303 310 311 319 320 320 320 321 322 321 321
287 287 288 287 290 284 284 284 282 281 280 280 279 279 278 278 279 279 278 279 280 280 281 282 281 283 287 293 296 299 298 300 308 312 317 320 320 320 319 320 321 321 320 320
283 279 285 284 287 285 284 283 282 281 280 279 279 278 278 278 278 278 279 279 279 281 281 282 282 286 288 294 297 303 309 310 315 318 319 320 320 320 319 319 319 319 317 317
284 280 284 284 285 284 283 282 282 282 281 280 280 280 279 279 279 278 279 279 280 280 283 284 283 286 289 294 297 304 308 315 318 319 319 320 319 319 319 319 319 318 318 319
280 284 286 288 284 284 284 283 281 281 281 280 280 280 281 280 280 279 280 282 280 282 283 286 286 288 290 293 299 303 308 314 318 318 318 318 317 317 318 317 316 315 316 317
Wind_Speed
7 8 8 8 5 5 13 15 16 17 9 20 13 21 15 11 7 6 4 8 12 15 19 25 28 28 27 24 23 21 21 19 16 20 18 19 22 30 26 25 20 28 64 64
2 8 7 5 4 12 14 18 11 12 11 19 12 20 10 2 6 5 6 9 13 19 27 35 36 30 25 24 23 21 20 20 15 18 15 19 23 23 24 19 19 15 61 67
6 4 8 4 6 17 19 7 14 21 26 2 11 5 3 5 7 9 8 8 13 18 34 42 37 30 26 24 24 24 22 22 20 18 19 17 20 23 32 26 32 15 32 75
4 5 6 7 8 15 15 9 20 22 10 4 7 6 2 3 6 7 5 11 17 27 40 36 32 31 29 27 25 25 24 22 23 19 21 18 18 20 35 38 33 16 21 65
7 7 7 9 10 13 8 24 20 8 4 4 1 4 3 4 5 6 9 13 20 38 39 39 33 30 31 29 26 26 25 24 23 22 20 21 18 20 30 35 27 16 26 56
4 3 2 5 15 7 17 17 1 3 2 3 4 5 7 3 7 11 12 18 33 44 41 37 33 32 31 29 28 26 26 25 22 22 22 24 24 21 30 38 29 15 34 51
9 1 1 9 9 2 17 14 5 2 2 4 6 9 11 9 9 9 13 26 45 46 44 43 40 36 34 32 30 28 26 25 23 23 22 24 23 23 29 40 36 18 28 52
8 3 7 12 5 7 8 7 4 6 7 12 15 7 3 4 8 10 20 42 47 48 47 45 41 41 37 34 32 30 28 28 25 24 25 26 30 30 28 47 40 25 12 38
7 4 3 3 5 4 5 5 3 6 7 5 6 7 17 1 8 17 36 45 47 49 48 48 45 40 39 38 33 30 31 31 27 25 25 26 30 29 28 46 45 32 16 26
1 8 1 2 0 4 3 2 2 2 6 8 8 13 10 10 14 26 31 41 49 52 51 50 48 44 41 36 34 31 29 31 27 26 26 28 33 33 34 43 52 39 14 22
3 2 0 6 1 4 1 0 3 3 4 5 8 7 3 8 19 28 32 46 53 55 54 52 51 48 41 38 32 29 27 28 28 27 27 29 34 35 36 38 53 39 20 28
1 3 6 5 3 1 0 1 2 4 2 8 9 10 5 9 28 35 40 53 55 54 54 52 51 47 46 37 31 29 27 27 26 26 26 32 35 39 37 42 49 40 30 32
3 1 8 2 3 4 4 3 4 6 7 13 9 9 9 33 33 38 48 55 55 55 53 50 44 48 46 40 33 28 25 26 25 25 26 30 37 43 42 46 47 48 35 36
3 3 7 8 15 15 16 15 10 7 6 11 15 36 31 30 29 42 54 55 56 53 51 47 49 47 45 42 33 28 24 24 25 26 28 31 36 47 43 46 44 49 31 42
2 5 8 16 20 17 16 12 7 9 12 9 26 27 29 27 32 47 54 57 55 53 49 53 51 48 46 40 31 25 22 23 25 29 32 36 37 49 44 40 42 43 33 49
1 4 6 8 2 2 11 7 8 10 13 18 20 26 16 43 47 47 51 53 53 51 59 56 54 50 45 35 27 23 22 23 27 33 34 35 38 50 48 40 47 34 36 52
3 4 6 5 8 6 3 7 9 14 15 15 13 20 28 31 35 47 57 55 49 60 58 58 56 51 44 37 23 21 21 23 26 33 33 33 43 43 45 42 49 41 44 60
4 5 3 6 11 3 1 3 7 12 19 12 13 18 32 37 50 53 50 44 57 59 60 58 56 54 47 29 14 13 20 25 27 33 34 35 47 36 41 44 33 32 51 58
10 3 4 4 7 10 1 3 10 9 18 3 11 26 38 46 49 37 43 60 60 59 56 53 52 49 40 27 7 10 16 20 27 33 36 46 36 41 48 38 40 52 57 62
4 2 3 3 4 4 2 5 19 3 5 12 30 31 35 45 21 21 73 74 71 69 56 55 52 44 39 20 1 11 17 22 28 33 45 36 34 43 43 39 40 46 47 56
2 2 4 4 5 7 2 15 12 10 11 35 32 33 36 20 31 56 64 66 64 62 64 55 49 47 46 23 8 13 21 27 33 42 30 31 39 44 40 41 49 44 46 42
2 2 2 2 4 6 1 6 8 12 25 28 32 33 38 42 49 53 57 60 65 63 70 73 67 57 52 29 15 13 24 34 40 30 36 40 46 46 47 46 42 40 40 40
2 4 2 6 4 1 13 8 11 14 23 27 30 39 37 42 47 53 56 60 60 59 60 64 58 50 52 42 26 11 23 33 22 38 39 47 45 42 45 46 41 39 41 40
5 6 4 3 4 6 14 10 14 19 20 25 29 34 34 40 46 51 54 57 60 62 62 64 65 69 60 48 38 20 27 35 36 38 39 40 40 42 40 38 39 40 40 37
1 9 6 6 15 12 3 7 19 25 25 27 31 31 31 37 45 47 54 57 60 57 66 64 65 65 61 51 43 27 32 31 31 34 34 34 34 34 33 31 32 32 26 21
12 7 6 2 4 4 10 15 18 21 26 28 30 36 37 36 42 45 51 54 55 60 59 61 62 61 57 51 39 26 24 31 28 30 29 31 32 31 32 32 34 30 24 21
Wind_Direction
26 49 33 9 17 355 317 302 289 299 335 327 308 301 309 321 224 242 293 340 341 338 335 334 330 326 320 317 313 311 309 303 301 297 290 275 289 260 219 216 262 194 198 192
161 54 7 319 311 327 323 311 309 310 313 319 307 300 309 311 221 253 293 317 330 332 334 332 327 322 318 315 312 308 303 296 288 284 291 279 268 253 237 220 233 308 196 195
51 17 329 338 334 341 334 294 320 311 323 281 310 264 220 187 228 229 255 312 321 328 334 327 325 321 318 315 310 304 299 293 283 267 270 261 270 256 243 230 212 305 198 193
62 357 344 333 342 346 318 329 312 310 316 313 3 303 250 198 263 243 264 318 329 332 332 328 323 318 316 312 307 300 296 289 282 267 270 268 259 258 247 233 223 278 196 185
4 343 349 345 340 330 296 311 309 308 255 295 106 273 245 241 278 319 317 322 327 331 331 327 322 316 312 309 303 297 293 285 279 267 260 259 261 257 245 234 227 279 220 184
351 292 297 340 315 326 327 308 307 199 217 245 118 7 273 285 316 316 321 322 328 330 328 325 319 315 311 307 301 294 289 281 273 264 250 243 236 236 239 233 232 265 198 180
323 211 331 343 324 334 355 348 338 307 300 318 182 309 265 301 307 302 313 321 328 328 326 324 322 318 313 307 301 294 286 276 269 262 249 239 234 238 227 232 234 224 185 185
359 329 4 3 33 315 355 10 19 311 316 312 300 231 298 307 322 314 319 325 325 325 325 322 321 317 315 308 300 292 281 274 267 259 246 233 224 224 224 222 233 223 192 192
338 273 335 30 17 341 351 20 354 284 259 271 266 281 278 15 318 328 328 327 324 324 321 321 321 316 312 306 296 289 278 270 262 253 244 232 222 220 222 218 224 230 233 193
128 289 144 347 207 75 3 2 291 347 308 302 284 298 268 318 341 333 330 326 323 322 320 319 317 315 311 305 297 287 274 266 256 247 238 228 218 214 213 209 217 221 211 190
161 230 256 280 52 335 205 74 9 277 278 305 308 292 21 303 331 333 328 323 321 318 315 314 313 313 310 306 296 286 274 262 251 239 231 223 217 210 208 205 207 206 207 185
112 304 286 327 5 69 359 131 26 314 321 267 279 271 288 332 331 325 320 318 316 312 310 311 311 313 312 308 298 287 274 258 246 233 224 219 213 203 206 211 196 204 209 208
162 184 312 126 160 182 238 199 230 261 265 259 273 266 312 321 321 318 318 315 312 310 311 310 310 311 310 307 298 286 272 256 240 227 217 213 209 198 206 203 196 205 211 201
214 250 227 267 287 307 299 298 286 249 269 280 263 292 310 317 319 319 315 313 311 311 311 310 313 311 309 305 297 283 268 248 232 219 213 207 205 195 203 194 197 205 213 197
279 264 276 267 282 285 279 279 276 219 244 266 294 298 301 311 316 312 310 312 312 312 315 318 316 313 309 304 296 279 261 242 219 211 208 205 204 193 195 195 195 211 202 201
183 275 324 289 82 261 284 263 216 234 268 270 287 291 292 313 309 310 314 314 312 315 319 320 318 315 311 304 292 273 253 231 211 206 205 201 202 192 194 195 180 187 195 206
273 303 319 278 310 329 254 217 214 281 279 283 291 299 318 316 316 318 314 310 315 318 319 321 320 318 315 310 292 263 236 213 209 201 200 198 192 194 199 194 189 208 197 198
274 284 269 294 319 301 91 225 248 273 285 279 272 295 311 311 310 309 305 319 319 322 323 324 324 324 325 332 313 247 215 199 201 195 194 191 187 197 195 188 200 193 192 199
225 287 303 302 305 292 175 204 325 334 310 237 287 313 318 319 314 314 329 328 324 324 326 326 327 329 340 344 308 215 198 194 185 188 186 181 185 192 181 186 185 188 187 189
126 238 273 319 302 289 87 314 328 152 271 339 335 322 321 328 334 329 329 327 328 329 334 334 339 347 357 9 242 187 180 176 182 186 178 182 191 185 177 181 193 200 198 198
238 203 251 269 271 279 340 328 316 335 320 330 324 320 321 324 311 309 318 323 328 332 336 345 355 0 11 27 105 161 166 173 172 170 191 186 174 174 175 180 191 189 195 194
246 273 268 229 268 318 61 317 354 318 310 316 317 320 319 318 319 322 326 328 332 342 351 359 0 7 21 42 75 142 161 168 177 205 180 174 164 164 174 174 182 188 190 194
252 207 283 226 272 60 323 301 302 311 312 316 316 323 323 322 325 330 332 335 337 345 351 356 360 5 20 37 49 183 205 199 206 159 159 158 160 168 179 178 176 182 193 191
218 187 228 313 215 265 304 302 323 325 317 319 321 326 331 328 332 335 339 340 342 347 355 359 4 12 21 32 43 79 144 172 154 147 151 159 168 174 177 177 178 180 186 187
251 166 211 250 281 298 280 298 321 324 328 328 333 336 338 345 343 340 346 346 349 351 2 9 9 15 19 24 38 63 107 141 141 143 151 158 165 169 171 171 177 179 177 176
191 194 189 247 160 247 289 316 322 324 330 334 333 340 348 354 353 353 350 355 353 357 7 10 16 20 27 26 33 53 85 116 134 142 155 158 159 164 166 168 174 183 165 148